Location: Czekanka
(50.4925°N, 19.2643°E)
Time: 16:15:00
(UTC+00:00)

SL-16 R/B - Pass Details

Date: 22 September 2024
Orbit: 842 x 846 km, 71.0° (Epoch: 07 October)

Event Time Altitude Azimuth Distance (km) Brightness Sun altitude
Rises 03:23:32 0° 328° (NNW) 3,412 5.2 -11.2°
Reaches altitude 10° 03:26:00 10° 326° (NW) 2,472 4.4 -10.9°
Maximum altitude 03:31:36 63° 246° (WSW) 943 2.2 -10.0°
Drops below altitude 10° 03:37:09 10° 167° (SSE) 2,455 4.6 -9.1°
Sets 03:39:36 0° 164° (SSE) 3,386 5.4 -8.7°
